PDA6039 LIEO-UKBB

Flight info

Callsign PDA6039
Flight time 2h 44m
Altitude 37000
Route BATOX L5 VALMA L865 ANC M986 IBENI DCT NIVES DCT VEBAL DCT DODAR DCT LONLA/K0850F370 M986 IVF M991 NIROV T199 GAMLA N180 SULUM
Aircraft B738/M-SDE2E3FGHIRWXY/LB1

Departure

Time 2026-05-04 08:13
Airport Olbia Costa Smeralda Airport (LIEO)

Arrival

Time 2026-05-04 10:58
Airport Boryspil International Airport (UKBB)
Time Latitude Longitude Altitude Speed Heading
2026-05-04 07:39 40.90268 9.51708 46 ft 0 kts 325°
2026-05-04 08:02 40.90267 9.51708 46 ft 1 kts 325°
2026-05-04 08:02 40.90255 9.51719 46 ft 2 kts 325°
2026-05-04 08:02 40.90248 9.51726 46 ft 2 kts 325°
2026-05-04 08:03 40.90238 9.51741 46 ft 2 kts 292°
2026-05-04 08:03 40.90235 9.51761 46 ft 2 kts 269°
2026-05-04 08:03 40.90238 9.51780 46 ft 2 kts 243°
2026-05-04 08:03 40.90242 9.51788 46 ft 1 kts 231°
2026-05-04 08:04 40.90244 9.51792 46 ft 0 kts 235°
2026-05-04 08:05 40.90243 9.51791 46 ft 0 kts 235°
2026-05-04 08:05 40.90236 9.51778 46 ft 2 kts 235°
2026-05-04 08:06 40.90221 9.51748 46 ft 5 kts 237°
2026-05-04 08:06 40.90192 9.51693 46 ft 9 kts 236°
2026-05-04 08:06 40.90154 9.51621 46 ft 7 kts 234°
2026-05-04 08:06 40.90118 9.51550 46 ft 11 kts 236°
2026-05-04 08:08 40.89671 9.50991 46 ft 16 kts 236°
2026-05-04 08:08 40.89614 9.50884 46 ft 13 kts 235°
2026-05-04 08:10 40.89376 9.50458 46 ft 0 kts 208°
2026-05-04 08:11 40.89375 9.50457 46 ft 0 kts 207°
2026-05-04 08:11 40.89335 9.50444 46 ft 7 kts 181°
2026-05-04 08:11 40.89284 9.50486 46 ft 11 kts 115°
2026-05-04 08:12 40.89267 9.50592 46 ft 10 kts 88°
2026-05-04 08:12 40.89293 9.50667 46 ft 3 kts 56°
2026-05-04 08:12 40.89294 9.50669 46 ft 0 kts 56°
2026-05-04 08:12 40.89294 9.50670 46 ft 2 kts 56°
2026-05-04 08:13 40.89462 9.50990 46 ft 83 kts 55°
2026-05-04 08:13 40.89936 9.51892 46 ft 154 kts 55°
2026-05-04 08:13 40.90644 9.53224 273 ft 190 kts 54°
2026-05-04 08:13 40.91412 9.54637 1137 ft 192 kts 53°
2026-05-04 08:14 40.92182 9.56055 1956 ft 195 kts 53°
2026-05-04 08:14 40.92995 9.57597 2340 ft 217 kts 54°
2026-05-04 08:14 40.93877 9.59306 2907 ft 232 kts 54°
2026-05-04 08:16 41.00606 9.72405 8194 ft 275 kts 54°
2026-05-04 08:16 41.01639 9.74550 8933 ft 281 kts 53°
2026-05-04 08:16 41.02704 9.76765 9696 ft 286 kts 53°
2026-05-04 08:17 41.03776 9.78995 10429 ft 291 kts 53°
2026-05-04 08:17 41.04892 9.81313 10770 ft 312 kts 54°
2026-05-04 08:17 41.06110 9.83844 10993 ft 336 kts 54°
2026-05-04 08:17 41.07394 9.86523 11424 ft 352 kts 54°
2026-05-04 08:19 41.17040 10.06722 16496 ft 387 kts 54°
2026-05-04 08:19 41.18481 10.09750 17175 ft 391 kts 54°
2026-05-04 08:20 41.19918 10.12799 17832 ft 395 kts 56°
2026-05-04 08:20 41.21227 10.16065 18473 ft 401 kts 62°
2026-05-04 08:20 41.22319 10.19479 19099 ft 406 kts 64°
2026-05-04 08:20 41.23379 10.22980 19705 ft 410 kts 64°
2026-05-04 08:21 41.24437 10.26458 20290 ft 414 kts 64°
2026-05-04 08:21 41.25528 10.30055 20873 ft 417 kts 64°
2026-05-04 08:21 41.26606 10.33645 21427 ft 421 kts 64°
2026-05-04 08:21 41.27685 10.37262 21974 ft 425 kts 64°
2026-05-04 08:22 41.28764 10.40887 22498 ft 428 kts 64°
2026-05-04 08:22 41.29864 10.44595 23020 ft 432 kts 64°
2026-05-04 08:24 41.37705 10.71251 26267 ft 454 kts 64°
2026-05-04 08:24 41.38852 10.75180 26682 ft 457 kts 64°
2026-05-04 08:24 41.40007 10.79143 27087 ft 460 kts 64°
2026-05-04 08:24 41.41175 10.83155 27509 ft 462 kts 64°
2026-05-04 08:25 41.42319 10.87096 27916 ft 464 kts 64°
2026-05-04 08:25 41.43472 10.91161 28331 ft 466 kts 64°
2026-05-04 08:25 41.44597 10.95213 28722 ft 468 kts 64°
2026-05-04 08:25 41.45721 10.99263 29162 ft 468 kts 64°
2026-05-04 08:26 41.46852 11.03332 29562 ft 469 kts 63°
2026-05-04 08:27 41.54837 11.31684 32456 ft 460 kts 59°
2026-05-04 08:28 41.56268 11.35436 32800 ft 451 kts 51°
2026-05-04 08:28 41.58078 11.38775 33110 ft 441 kts 41°
2026-05-04 08:28 41.60244 11.41597 33476 ft 430 kts 32°
2026-05-04 08:28 41.62646 11.43951 33796 ft 423 kts 25°
2026-05-04 08:29 41.65211 11.45753 34092 ft 414 kts 16°
2026-05-04 08:29 41.67867 11.47047 34408 ft 410 kts 13°
2026-05-04 08:29 41.70565 11.48293 34678 ft 410 kts 14°
2026-05-04 08:31 41.89216 11.57419 36339 ft 408 kts 14°
2026-05-04 08:33 42.07823 11.66528 37182 ft 411 kts 14°
2026-05-04 08:33 42.10490 11.67839 37182 ft 409 kts 14°
2026-05-04 08:35 42.31123 11.80855 37182 ft 415 kts 23°
2026-05-04 08:35 42.36124 11.84712 37155 ft 416 kts 23°
2026-05-04 08:37 42.53628 11.98399 37155 ft 416 kts 24°
2026-05-04 08:38 42.58622 12.02399 37155 ft 418 kts 26°
2026-05-04 08:38 42.63280 12.07264 37155 ft 429 kts 37°
2026-05-04 08:40 42.79788 12.30748 37171 ft 431 kts 39°
2026-05-04 08:41 42.83865 12.36651 37178 ft 431 kts 39°
2026-05-04 08:41 42.87958 12.42604 37182 ft 431 kts 39°
2026-05-04 08:42 42.92056 12.48576 37182 ft 432 kts 39°
2026-05-04 08:42 42.96143 12.54547 37182 ft 433 kts 39°
2026-05-04 08:43 43.00255 12.60568 37182 ft 435 kts 38°
2026-05-04 08:43 43.04363 12.66597 37182 ft 436 kts 39°
2026-05-04 08:44 43.08480 12.72637 37182 ft 436 kts 39°
2026-05-04 08:46 43.24983 12.96950 37167 ft 436 kts 39°
2026-05-04 08:46 43.29066 13.03024 37147 ft 433 kts 38°
2026-05-04 08:47 43.33135 13.09036 37133 ft 425 kts 37°
2026-05-04 08:47 43.37133 13.14913 37128 ft 421 kts 37°
2026-05-04 08:48 43.41106 13.20798 37128 ft 417 kts 37°
2026-05-04 08:48 43.45020 13.26668 37128 ft 415 kts 37°
2026-05-04 08:49 43.48924 13.32498 37128 ft 418 kts 37°
2026-05-04 08:50 43.61064 13.49397 37128 ft 404 kts 27°
2026-05-04 08:50 43.63289 13.51733 37128 ft 404 kts 28°
2026-05-04 08:51 43.67713 13.56490 37128 ft 404 kts 28°
2026-05-04 08:51 43.72160 13.61198 37128 ft 405 kts 27°
2026-05-04 08:52 43.76629 13.65911 37128 ft 405 kts 28°
2026-05-04 08:52 43.81108 13.70657 37128 ft 406 kts 28°
2026-05-04 08:54 43.98941 13.89579 37128 ft 406 kts 29°
2026-05-04 08:55 44.03090 13.95074 37129 ft 419 kts 39°
2026-05-04 08:55 44.06903 14.01118 37128 ft 419 kts 38°
2026-05-04 09:01 44.46923 14.65268 37131 ft 419 kts 39°
2026-05-04 09:01 44.50732 14.71473 37134 ft 421 kts 39°
2026-05-04 09:02 44.54548 14.77686 37137 ft 422 kts 39°
2026-05-04 09:02 44.58331 14.83890 37136 ft 420 kts 39°
2026-05-04 09:03 44.62112 14.90092 37133 ft 419 kts 39°
2026-05-04 09:03 44.65890 14.96267 37135 ft 414 kts 39°
2026-05-04 09:04 44.69552 15.02329 37138 ft 405 kts 39°
2026-05-04 09:04 44.73158 15.08274 37138 ft 398 kts 38°
2026-05-04 09:05 44.76723 15.14146 37135 ft 394 kts 38°
2026-05-04 09:05 44.80278 15.20018 37122 ft 396 kts 38°
2026-05-04 09:06 44.83861 15.25960 37110 ft 399 kts 38°
2026-05-04 09:08 44.98059 15.49668 37100 ft 398 kts 38°
2026-05-04 09:08 45.01640 15.55712 37100 ft 401 kts 38°
2026-05-04 09:09 45.05230 15.61747 37101 ft 403 kts 38°
2026-05-04 09:09 45.08852 15.67837 37101 ft 406 kts 38°
2026-05-04 09:10 45.12489 15.73972 37101 ft 410 kts 38°
2026-05-04 09:10 45.16159 15.80185 37101 ft 410 kts 38°
2026-05-04 09:11 45.19786 15.86342 37101 ft 408 kts 38°
2026-05-04 09:11 45.23420 15.92538 37101 ft 409 kts 39°
2026-05-04 09:12 45.26962 15.98830 37101 ft 410 kts 39°
2026-05-04 09:14 45.41176 16.24135 37101 ft 410 kts 39°
2026-05-04 09:14 45.44724 16.30483 37101 ft 410 kts 39°
2026-05-04 09:15 45.48258 16.36821 37101 ft 410 kts 39°
2026-05-04 09:15 45.51803 16.43192 37101 ft 410 kts 39°
2026-05-04 09:17 45.67669 16.71880 37101 ft 411 kts 40°
2026-05-04 09:18 45.71201 16.78306 37101 ft 411 kts 40°
2026-05-04 09:18 45.74731 16.84745 37101 ft 412 kts 40°
2026-05-04 09:19 45.78275 16.91219 37101 ft 414 kts 41°
2026-05-04 09:19 45.81827 16.97726 37101 ft 417 kts 41°
2026-05-04 09:20 45.85397 17.04280 37101 ft 420 kts 42°
2026-05-04 09:20 45.88982 17.10883 37101 ft 421 kts 42°
2026-05-04 09:21 45.92572 17.17510 37101 ft 420 kts 42°
2026-05-04 09:21 45.96152 17.24131 37101 ft 419 kts 42°
2026-05-04 09:22 45.99713 17.30719 37099 ft 419 kts 41°
2026-05-04 09:22 46.03381 17.37154 37088 ft 417 kts 40°
2026-05-04 09:23 46.07059 17.43596 37071 ft 417 kts 41°
2026-05-04 09:23 46.10748 17.50099 37053 ft 417 kts 40°
2026-05-04 09:25 46.25391 17.76062 37047 ft 419 kts 41°
2026-05-04 09:26 46.29053 17.82596 37047 ft 418 kts 41°
2026-05-04 09:26 46.32714 17.89143 37047 ft 418 kts 41°
2026-05-04 09:27 46.36352 17.95665 37047 ft 418 kts 41°
2026-05-04 09:27 46.39993 18.02206 37047 ft 418 kts 41°
2026-05-04 09:28 46.43645 18.08784 37047 ft 418 kts 41°
2026-05-04 09:28 46.47268 18.15326 37047 ft 418 kts 41°
2026-05-04 09:29 46.50885 18.21871 37047 ft 418 kts 41°
2026-05-04 09:29 46.54530 18.28482 37047 ft 418 kts 41°
2026-05-04 09:30 46.58153 18.35070 37047 ft 418 kts 41°
2026-05-04 09:30 46.61768 18.41657 37047 ft 418 kts 41°
2026-05-04 09:31 46.65385 18.48266 37047 ft 418 kts 41°
2026-05-04 09:31 46.68989 18.54867 37047 ft 418 kts 41°
2026-05-04 09:32 46.72576 18.61452 37047 ft 418 kts 41°
2026-05-04 09:34 46.87013 18.88111 37047 ft 419 kts 42°
2026-05-04 09:34 46.90599 18.94772 37047 ft 419 kts 42°
2026-05-04 09:35 46.94228 19.01522 37047 ft 425 kts 43°
2026-05-04 09:35 46.97886 19.08348 37159 ft 432 kts 44°
2026-05-04 09:37 47.11092 19.33165 37155 ft 443 kts 46°
2026-05-04 09:37 47.12988 19.36731 37155 ft 442 kts 46°
2026-05-04 09:38 47.16775 19.43855 37155 ft 443 kts 46°
2026-05-04 09:38 47.20559 19.51017 37155 ft 444 kts 46°
2026-05-04 09:39 47.23994 19.58585 37155 ft 448 kts 53°
2026-05-04 09:39 47.27204 19.66365 37155 ft 447 kts 53°
2026-05-04 09:40 47.30508 19.74149 37155 ft 448 kts 53°
2026-05-04 09:40 47.33767 19.81927 37155 ft 447 kts 53°
2026-05-04 09:42 47.46836 20.13197 37155 ft 448 kts 53°
2026-05-04 09:43 47.50055 20.20987 37155 ft 448 kts 53°
2026-05-04 09:43 47.53276 20.28857 37155 ft 448 kts 53°
2026-05-04 09:44 47.56513 20.36697 37155 ft 447 kts 53°
2026-05-04 09:46 47.69404 20.68210 37159 ft 448 kts 53°
2026-05-04 09:46 47.72628 20.76143 37167 ft 449 kts 53°
2026-05-04 09:47 47.75825 20.84066 37176 ft 449 kts 53°
2026-05-04 09:49 47.88623 21.15959 37182 ft 450 kts 55°
2026-05-04 09:51 47.99773 21.43974 37182 ft 449 kts 55°
2026-05-04 09:51 48.02918 21.51971 37182 ft 450 kts 55°
2026-05-04 09:52 48.06107 21.60027 37181 ft 450 kts 55°
2026-05-04 09:52 48.09263 21.68087 37182 ft 450 kts 56°
2026-05-04 09:53 48.12420 21.76196 37181 ft 450 kts 56°
2026-05-04 09:53 48.15568 21.84250 37182 ft 449 kts 56°
2026-05-04 09:54 48.18742 21.92352 37182 ft 449 kts 56°
2026-05-04 09:54 48.21869 22.00392 37182 ft 450 kts 56°
2026-05-04 09:55 48.24995 22.08516 37182 ft 450 kts 56°
2026-05-04 09:55 48.28133 22.16666 37182 ft 450 kts 56°
2026-05-04 09:56 48.31257 22.24794 37182 ft 450 kts 56°
2026-05-04 09:56 48.34091 22.33184 37182 ft 454 kts 64°
2026-05-04 09:57 48.36219 22.42130 37172 ft 455 kts 66°
2026-05-04 09:57 48.38372 22.51070 37162 ft 456 kts 66°
2026-05-04 09:58 48.40498 22.60072 37155 ft 456 kts 66°
2026-05-04 09:58 48.42574 22.69084 37155 ft 455 kts 67°
2026-05-04 10:00 48.49789 23.01175 37154 ft 473 kts 71°
2026-05-04 10:00 48.50828 23.05900 37154 ft 468 kts 71°
2026-05-04 10:04 48.66277 23.70011 37155 ft 466 kts 71°
2026-05-04 10:04 48.68363 23.79277 37155 ft 465 kts 71°
2026-05-04 10:05 48.70471 23.88541 37155 ft 466 kts 71°
2026-05-04 10:05 48.72574 23.97799 37155 ft 466 kts 71°
2026-05-04 10:06 48.74662 24.07117 37101 ft 466 kts 71°
2026-05-04 10:06 48.76745 24.16400 37101 ft 466 kts 71°
2026-05-04 10:08 48.83980 24.48954 37057 ft 466 kts 71°
2026-05-04 10:08 48.86023 24.58217 37033 ft 465 kts 71°
2026-05-04 10:09 48.87863 24.67665 37011 ft 465 kts 78°
2026-05-04 10:09 48.88579 24.77356 37001 ft 465 kts 88°
2026-05-04 10:10 48.88908 24.87176 36996 ft 465 kts 87°
2026-05-04 10:10 48.89260 24.96964 36992 ft 464 kts 87°
2026-05-04 10:11 48.89568 25.06752 36988 ft 465 kts 88°
2026-05-04 10:11 48.89882 25.16586 36985 ft 466 kts 89°
2026-05-04 10:12 48.90173 25.26382 36981 ft 465 kts 88°
2026-05-04 10:12 48.90496 25.36191 36978 ft 466 kts 89°
2026-05-04 10:13 48.90791 25.46053 36973 ft 467 kts 88°
2026-05-04 10:13 48.91083 25.55886 36971 ft 466 kts 88°
2026-05-04 10:14 48.91381 25.65734 36967 ft 467 kts 88°
2026-05-04 10:16 48.93077 26.05020 36947 ft 465 kts 88°
2026-05-04 10:16 48.93428 26.14808 36943 ft 465 kts 88°
2026-05-04 10:17 48.93747 26.24657 36939 ft 466 kts 89°
2026-05-04 10:19 48.94918 26.63984 36921 ft 465 kts 89°
2026-05-04 10:19 48.95147 26.73780 36963 ft 464 kts 90°
2026-05-04 10:20 48.95340 26.83592 37015 ft 466 kts 90°
2026-05-04 10:20 48.95542 26.93468 37047 ft 466 kts 89°
2026-05-04 10:21 48.95758 27.03280 37046 ft 465 kts 90°
2026-05-04 10:21 48.95958 27.13070 37047 ft 463 kts 89°
2026-05-04 10:22 48.96258 27.27764 37045 ft 465 kts 90°
2026-05-04 10:23 48.96404 27.37596 37043 ft 465 kts 90°
2026-05-04 10:25 48.97074 27.76785 37047 ft 463 kts 91°
2026-05-04 10:25 48.97080 27.86569 37048 ft 465 kts 91°
2026-05-04 10:26 48.97085 27.96417 37047 ft 465 kts 91°
2026-05-04 10:26 48.97052 28.06250 37047 ft 463 kts 92°
2026-05-04 10:27 48.96929 28.16014 37047 ft 464 kts 92°
2026-05-04 10:27 48.96867 28.25857 37046 ft 466 kts 91°
2026-05-04 10:28 48.96831 28.35706 37046 ft 464 kts 91°
2026-05-04 10:28 48.96865 28.45529 37047 ft 463 kts 90°
2026-05-04 10:29 48.96848 28.55331 37047 ft 465 kts 92°
2026-05-04 10:29 48.96754 28.65140 37047 ft 463 kts 92°
2026-05-04 10:30 48.96713 28.74924 37047 ft 464 kts 91°
2026-05-04 10:30 48.96945 28.84735 37046 ft 466 kts 84°
2026-05-04 10:31 48.98506 28.94255 37047 ft 467 kts 71°
2026-05-04 10:32 49.05040 29.27139 37046 ft 467 kts 71°
2026-05-04 10:33 49.06895 29.36627 37046 ft 468 kts 72°
2026-05-04 10:33 49.08739 29.46131 37047 ft 469 kts 71°
2026-05-04 10:34 49.10610 29.55706 37047 ft 472 kts 71°
2026-05-04 10:34 49.12468 29.65252 37047 ft 473 kts 72°
2026-05-04 10:35 49.14314 29.74948 37047 ft 473 kts 73°
2026-05-04 10:35 49.16134 29.84530 37068 ft 472 kts 72°
2026-05-04 10:36 49.18026 29.94231 37072 ft 474 kts 69°
2026-05-04 10:36 49.19430 29.98684 37072 ft 469 kts 53°
2026-05-04 10:36 49.21637 30.02334 37051 ft 460 kts 35°
2026-05-04 10:37 49.24357 30.04693 36538 ft 451 kts 18°
2026-05-04 10:37 49.27344 30.06108 35799 ft 449 kts 12°
2026-05-04 10:37 49.30318 30.07436 35148 ft 450 kts 14°
2026-05-04 10:37 49.33290 30.08960 34441 ft 451 kts 16°
2026-05-04 10:39 49.51131 30.18597 29842 ft 460 kts 17°
2026-05-04 10:39 49.54122 30.20239 29072 ft 460 kts 17°
2026-05-04 10:39 49.57138 30.21904 28248 ft 462 kts 17°
2026-05-04 10:40 49.60153 30.23575 27425 ft 463 kts 18°
2026-05-04 10:40 49.63171 30.25253 26590 ft 464 kts 18°
2026-05-04 10:40 49.66185 30.26937 25869 ft 462 kts 18°
2026-05-04 10:40 49.69217 30.28631 25174 ft 459 kts 18°
2026-05-04 10:41 49.72168 30.30280 24588 ft 454 kts 18°
2026-05-04 10:41 49.75130 30.31938 23969 ft 450 kts 18°
2026-05-04 10:41 49.78045 30.33570 23359 ft 446 kts 18°
2026-05-04 10:41 49.80951 30.35199 22760 ft 442 kts 18°
2026-05-04 10:42 49.83813 30.36805 22169 ft 438 kts 18°
2026-05-04 10:42 49.86693 30.38423 21549 ft 434 kts 18°
2026-05-04 10:42 49.89491 30.39996 20955 ft 430 kts 18°
2026-05-04 10:42 49.92285 30.41570 20360 ft 427 kts 18°
2026-05-04 10:43 49.95056 30.43132 19755 ft 423 kts 18°
2026-05-04 10:44 50.13818 30.53757 15658 ft 400 kts 19°
2026-05-04 10:45 50.16428 30.55242 15074 ft 397 kts 19°
2026-05-04 10:45 50.18994 30.56703 14506 ft 394 kts 19°
2026-05-04 10:45 50.21573 30.58174 13933 ft 391 kts 19°
2026-05-04 10:45 50.24103 30.59618 13367 ft 388 kts 19°
2026-05-04 10:46 50.26629 30.61062 12799 ft 385 kts 19°
2026-05-04 10:46 50.29108 30.62481 12242 ft 382 kts 19°
2026-05-04 10:46 50.31598 30.63907 11687 ft 379 kts 19°
2026-05-04 10:46 50.34031 30.65303 11310 ft 362 kts 20°
2026-05-04 10:47 50.36297 30.66605 11001 ft 339 kts 20°
2026-05-04 10:47 50.38483 30.67862 10446 ft 332 kts 20°
2026-05-04 10:47 50.40618 30.69089 10116 ft 327 kts 20°
2026-05-04 10:47 50.42749 30.70316 9710 ft 324 kts 20°
2026-05-04 10:49 50.57715 30.74795 6904 ft 287 kts
2026-05-04 10:49 50.59640 30.75270 6552 ft 280 kts
2026-05-04 10:50 50.61550 30.75745 6260 ft 276 kts
2026-05-04 10:51 50.62145 30.87962 4404 ft 222 kts 158°
2026-05-04 10:52 50.60728 30.88917 4108 ft 221 kts 158°
2026-05-04 10:52 50.59318 30.89869 3828 ft 219 kts 158°
2026-05-04 10:52 50.57935 30.90805 3506 ft 219 kts 158°
2026-05-04 10:54 50.48392 30.91562 2875 ft 163 kts 185°
2026-05-04 10:54 50.47283 30.91476 2650 ft 155 kts 185°
2026-05-04 10:56 50.40027 30.90940 1237 ft 147 kts 186°
2026-05-04 10:56 50.39007 30.90865 1039 ft 147 kts 186°
2026-05-04 10:56 50.37996 30.90793 846 ft 146 kts 185°
2026-05-04 10:57 50.36972 30.90726 644 ft 145 kts 186°
2026-05-04 10:57 50.35977 30.90643 484 ft 145 kts 186°
2026-05-04 10:57 50.35036 30.90576 427 ft 123 kts 185°
2026-05-04 10:57 50.34188 30.90505 427 ft 111 kts 183°
2026-05-04 10:58 50.33678 30.90466 426 ft 52 kts 181°
2026-05-04 10:58 50.33403 30.90449 426 ft 28 kts 186°
2026-05-04 10:58 50.33324 30.90370 426 ft 11 kts 236°
2026-05-04 10:58 50.33310 30.90251 426 ft 13 kts 283°
2026-05-04 10:59 50.33361 30.90127 426 ft 14 kts 342°
2026-05-04 10:59 50.33454 30.90120 426 ft 12 kts 341°
2026-05-04 10:59 50.33495 30.90018 426 ft 11 kts 274°
2026-05-04 10:59 50.33498 30.89905 426 ft 8 kts 272°
2026-05-04 11:00 50.33534 30.89862 426 ft 6 kts 357°
2026-05-04 11:01 50.33563 30.89864 426 ft 0 kts